QPF
0.00 0.00 0.01 0.01 0.00 0.00 0.00 0.00 0.00 0.00 0.00 0.00 0.00 0.00 0.00 0.00 0.00 0.00 0.00 0.00 0.00 0.00 0.00 0.00 0.00 0.00 0.01 0.04 0.05 0.01 0.00 0.00 0.00 0.00 0.00 0.00 0.00 0.00 0.00 0.00 0.00 0.00 0.00
0.00 0.00 0.00 0.01 0.00 0.00 0.00 0.00 0.00 0.00 0.00 0.00 0.00 0.00 0.01 0.01 0.01 0.00 0.00 0.00 0.00 0.00 0.00 0.00 0.00 0.00 0.00 0.00 0.00 0.00 0.00 0.00 0.00 0.00 0.00 0.00 0.00 0.00 0.00 0.00 0.00 0.00 0.00
0.00 0.00 0.00 0.01 0.01 0.00 0.00 0.00 0.00 0.00 0.00 0.00 0.00 0.00 0.00 0.00 0.00 0.00 0.00 0.00 0.00 0.00 0.00 0.00 0.00 0.00 0.00 0.00 0.00 0.00 0.00 0.00 0.00 0.00 0.00 0.00 0.00 0.00 0.00 0.00 0.00 0.00 0.00
0.00 0.00 0.00 0.00 0.01 0.00 0.00 0.00 0.00 0.00 0.00 0.00 0.00 0.00 0.00 0.00 0.00 0.00 0.00 0.00 0.00 0.00 0.00 0.00 0.00 0.00 0.00 0.00 0.00 0.00 0.00 0.00 0.00 0.00 0.00 0.00 0.00 0.00 0.00 0.00 0.00 0.00 0.00
0.00 0.00 0.00 0.00 0.00 0.00 0.00 0.00 0.00 0.00 0.00 0.00 0.00 0.00 0.00 0.00 0.00 0.00 0.00 0.00 0.00 0.00 0.00 0.00 0.00 0.00 0.00 0.00 0.00 0.00 0.00 0.00 0.00 0.00 0.00 0.00 0.00 0.00 0.00 0.00 0.00 0.00 0.00
0.00 0.00 0.00 0.00 0.00 0.00 0.00 0.00 0.00 0.00 0.00 0.00 0.00 0.00 0.00 0.00 0.00 0.00 0.00 0.00 0.00 0.00 0.00 0.00 0.00 0.00 0.00 0.00 0.00 0.00 0.00 0.00 0.00 0.00 0.00 0.00 0.00 0.00 0.00 0.00 0.00 0.00 0.00
0.00 0.00 0.00 0.00 0.01 0.01 0.01 0.01 0.01 0.00 0.00 0.00 0.00 0.00 0.00 0.00 0.01 0.01 0.00 0.00 0.00 0.00 0.00 0.00 0.00 0.01 0.00 0.00 0.00 0.00 0.00 0.00 0.00 0.00 0.00 0.00 0.00 0.00 0.00 0.00 0.00 0.00 0.00
0.00 0.00 0.00 0.01 0.01 0.01 0.01 0.01 0.01 0.00 0.00 0.00 0.00 0.00 0.00 0.00 0.00 0.00 0.01 0.00 0.00 0.00 0.00 0.00 0.00 0.00 0.00 0.01 0.00 0.00 0.00 0.00 0.00 0.00 0.00 0.00 0.00 0.00 0.00 0.00 0.01 0.00 0.00
0.00 0.00 0.00 0.01 0.00 0.01 0.01 0.01 0.01 0.00 0.00 0.00 0.00 0.00 0.00 0.00 0.00 0.00 0.01 0.01 0.01 0.00 0.00 0.00 0.00 0.01 0.00 0.00 0.00 0.00 0.00 0.00 0.00 0.00 0.00 0.00 0.00 0.00 0.00 0.00 0.01 0.01 0.02
0.00 0.00 0.00 0.00 0.00 0.00 0.01 0.00 0.00 0.00 0.00 0.00 0.00 0.00 0.00 0.00 0.00 0.00 0.00 0.01 0.00 0.00 0.00 0.00 0.00 0.00 0.00 0.00 0.00 0.00 0.00 0.00 0.00 0.00 0.00 0.00 0.00 0.00 0.00 0.00 0.00 0.00 0.00
0.00 0.00 0.00 0.00 0.00 0.00 0.00 0.00 0.00 0.00 0.00 0.00 0.00 0.00 0.00 0.00 0.00 0.00 0.00 0.00 0.00 0.00 0.00 0.00 0.00 0.00 0.00 0.00 0.00 0.00 0.00 0.00 0.00 0.00 0.00 0.00 0.00 0.00 0.00 0.00 0.00 0.00 0.00
0.00 0.00 0.00 0.00 0.00 0.00 0.01 0.00 0.00 0.00 0.00 0.00 0.00 0.00 0.00 0.00 0.00 0.00 0.00 0.00 0.00 0.00 0.00 0.00 0.00 0.00 0.00 0.00 0.00 0.00 0.00 0.00 0.00 0.00 0.00 0.00 0.00 0.00 0.00 0.00 0.00 0.00 0.00
0.00 0.00 0.00 0.00 0.00 0.00 0.00 0.00 0.00 0.00 0.00 0.00 0.00 0.00 0.00 0.00 0.00 0.00 0.00 0.00 0.00 0.00 0.00 0.00 0.00 0.00 0.00 0.00 0.00 0.00 0.00 0.00 0.00 0.00 0.00 0.00 0.00 0.00 0.00 0.00 0.00 0.00 0.00
0.00 0.00 0.00 0.00 0.00 0.00 0.00 0.00 0.00 0.00 0.00 0.00 0.00 0.00 0.00 0.00 0.00 0.00 0.00 0.00 0.00 0.00 0.00 0.00 0.00 0.00 0.00 0.00 0.00 0.00 0.00 0.00 0.00 0.00 0.00 0.00 0.00 0.00 0.00 0.00 0.00 0.00 0.00
0.00 0.00 0.00 0.00 0.00 0.00 0.00 0.01 0.00 0.00 0.00 0.00 0.00 0.00 0.00 0.00 0.00 0.00 0.00 0.00 0.00 0.00 0.00 0.00 0.00 0.00 0.00 0.00 0.00 0.00 0.00 0.00 0.00 0.00 0.00 0.00 0.00 0.00 0.00 0.00 0.00 0.00 0.00
0.00 0.00 0.00 0.00 0.00 0.00 0.00 0.00 0.00 0.00 0.00 0.00 0.00 0.00 0.00 0.00 0.00 0.00 0.00 0.00 0.00 0.00 0.00 0.00 0.00 0.00 0.00 0.00 0.00 0.00 0.00 0.00 0.00 0.00 0.00 0.00 0.00 0.00 0.00 0.00 0.00 0.00 0.00
0.00 0.00 0.00 0.00 0.00 0.00 0.00 0.00 0.00 0.00 0.00 0.00 0.00 0.00 0.00 0.00 0.00 0.00 0.00 0.00 0.00 0.00 0.00 0.00 0.00 0.00 0.00 0.00 0.00 0.00 0.00 0.00 0.00 0.00 0.00 0.00 0.00 0.00 0.00 0.00 0.00 0.00 0.00
0.00 0.00 0.00 0.00 0.00 0.00 0.00 0.00 0.01 0.00 0.00 0.01 0.00 0.00 0.00 0.00 0.00 0.00 0.00 0.00 0.00 0.00 0.00 0.00 0.00 0.00 0.00 0.00 0.00 0.00 0.00 0.00 0.00 0.00 0.00 0.00 0.00 0.00 0.00 0.00 0.00 0.00 0.00
0.00 0.00 0.00 0.00 0.00 0.00 0.00 0.00 0.01 0.01 0.00 0.00 0.00 0.00 0.00 0.00 0.00 0.00 0.00 0.00 0.00 0.00 0.00 0.00 0.00 0.00 0.00 0.00 0.00 0.00 0.00 0.00 0.00 0.00 0.00 0.00 0.00 0.00 0.00 0.00 0.00 0.00 0.00
0.00 0.00 0.00 0.00 0.00 0.00 0.00 0.00 0.00 0.01 0.04 0.02 0.00 0.00 0.00 0.00 0.00 0.00 0.00 0.00 0.00 0.00 0.00 0.00 0.00 0.00 0.00 0.00 0.00 0.00 0.00 0.00 0.00 0.00 0.00 0.00 0.00 0.00 0.00 0.00 0.00 0.00 0.00
0.00 0.00 0.00 0.00 0.00 0.00 0.00 0.01 0.01 0.03 0.03 0.01 0.00 0.00 0.00 0.00 0.00 0.00 0.00 0.00 0.00 0.00 0.00 0.00 0.00 0.00 0.00 0.00 0.00 0.00 0.00 0.00 0.00 0.00 0.00 0.00 0.00 0.00 0.00 0.00 0.00 0.00 0.00
0.00 0.00 0.00 0.00 0.00 0.00 0.00 0.01 0.02 0.03 0.02 0.01 0.00 0.00 0.00 0.00 0.00 0.00 0.00 0.00 0.00 0.00 0.00 0.00 0.00 0.00 0.00 0.00 0.00 0.00 0.00 0.00 0.00 0.00 0.00 0.00 0.00 0.00 0.00 0.00 0.00 0.00 0.00
0.00 0.00 0.00 0.00 0.00 0.00 0.00 0.00 0.00 0.01 0.01 0.01 0.00 0.00 0.00 0.00 0.00 0.00 0.00 0.00 0.00 0.00 0.00 0.00 0.00 0.00 0.00 0.00 0.00 0.00 0.00 0.00 0.00 0.00 0.00 0.00 0.00 0.00 0.00 0.00 0.00 0.00 0.00
0.00 0.00 0.00 0.00 0.00 0.00 0.00 0.00 0.00 0.00 0.01 0.01 0.01 0.00 0.00 0.00 0.00 0.00 0.00 0.00 0.00 0.00 0.00 0.00 0.00 0.00 0.00 0.00 0.00 0.00 0.00 0.00 0.00 0.00 0.00 0.00 0.00 0.00 0.00 0.00 0.00 0.00 0.00
0.00 0.00 0.00 0.00 0.00 0.00 0.00 0.00 0.00 0.01 0.00 0.01 0.00 0.00 0.00 0.00 0.00 0.00 0.00 0.00 0.00 0.00 0.00 0.00 0.00 0.00 0.00 0.00 0.00 0.00 0.00 0.00 0.00 0.00 0.00 0.00 0.00 0.00 0.00 0.00 0.00 0.00 0.00
0.00 0.00 0.00 0.00 0.00 0.00 0.00 0.00 0.00 0.01 0.01 0.01 0.00 0.00 0.00 0.00 0.00 0.00 0.00 0.00 0.00 0.00 0.00 0.00 0.00 0.00 0.00 0.00 0.00 0.00 0.00 0.00 0.00 0.00 0.00 0.00 0.00 0.00 0.00 0.00 0.00 0.00 0.00
MSLP
1007.67 1008.81 1009.62 1010.05 1010.56 1011.05 1011.48 1011.65 1011.87 1012.06 1012.04 1012.00 1012.19 1012.41 1012.59 1012.81 1013.01 1013.22 1013.44 1013.63 1013.77 1013.85 1013.91 1013.88 1013.93 1013.96 1014.01 1013.97 1013.98 1014.18 1014.42 1014.48 1014.63 1014.66 1014.68 1014.68 1014.61 1014.56 1014.48 1014.34 1014.34 1014.11 1014.14
1007.33 1008.49 1009.53 1010.13 1010.62 1011.17 1011.59 1011.89 1012.07 1012.24 1012.35 1012.36 1012.35 1012.61 1012.80 1013.00 1013.20 1013.41 1013.61 1013.83 1013.93 1014.08 1014.13 1014.10 1014.24 1014.32 1014.33 1014.37 1014.42 1014.45 1014.55 1014.67 1014.76 1014.83 1014.75 1014.69 1014.68 1014.62 1014.45 1014.61 1014.58 1014.41 1014.43
1007.27 1008.31 1009.43 1010.00 1010.58 1011.10 1011.63 1012.01 1012.25 1012.41 1012.47 1012.62 1012.68 1012.74 1012.98 1013.19 1013.31 1013.51 1013.76 1013.94 1014.13 1014.30 1014.39 1014.45 1014.50 1014.57 1014.61 1014.55 1014.58 1014.64 1014.68 1014.81 1014.85 1014.89 1014.64 1014.01 1013.98 1014.54 1014.59 1014.51 1014.43 1014.48 1014.51
1007.34 1008.25 1008.92 1010.04 1010.58 1011.13 1011.66 1012.07 1012.32 1012.49 1012.61 1012.83 1012.91 1013.03 1013.09 1013.24 1013.39 1013.73 1013.99 1014.15 1014.36 1014.49 1014.59 1014.71 1014.77 1014.86 1014.86 1014.80 1014.76 1014.72 1014.72 1014.85 1014.84 1014.73 1013.98 1013.87 1013.90 1014.46 1014.61 1014.66 1014.51 1014.40 1014.41
1007.42 1008.04 1008.83 1010.03 1010.60 1011.14 1011.68 1012.10 1012.41 1012.63 1012.78 1012.95 1013.07 1013.26 1013.34 1013.51 1013.60 1013.72 1014.05 1014.32 1014.51 1014.67 1014.76 1014.91 1014.97 1015.02 1015.01 1015.07 1014.99 1014.77 1014.74 1014.81 1014.82 1014.51 1013.95 1014.10 1014.42 1014.53 1014.62 1014.58 1014.48 1014.42 1014.48
1007.21 1007.62 1009.56 1010.30 1010.81 1011.12 1011.52 1012.08 1012.53 1012.80 1012.99 1013.04 1013.34 1013.57 1013.66 1013.72 1013.84 1013.84 1014.04 1014.43 1014.64 1014.73 1014.87 1014.92 1014.99 1015.01 1014.97 1015.06 1015.01 1014.97 1015.04 1014.91 1014.79 1013.90 1013.97 1014.04 1014.17 1014.53 1014.68 1014.59 1014.59 1014.52 1014.35
1007.34 1007.61 1009.33 1010.35 1010.82 1011.21 1011.71 1012.00 1012.41 1012.85 1013.15 1013.31 1013.51 1013.68 1013.81 1013.80 1013.90 1013.89 1014.16 1014.47 1014.79 1014.90 1014.91 1014.90 1014.92 1014.94 1015.05 1015.09 1015.04 1015.10 1015.15 1014.99 1014.63 1013.84 1013.88 1013.95 1014.12 1014.49 1014.60 1014.35 1014.33 1014.39 1014.25
1007.37 1007.83 1009.29 1010.30 1010.77 1011.22 1011.73 1012.26 1012.43 1012.84 1013.17 1013.37 1013.63 1013.76 1013.91 1014.00 1013.80 1013.74 1014.18 1014.57 1014.82 1014.97 1015.04 1015.00 1014.98 1015.09 1015.06 1015.15 1015.17 1015.28 1015.19 1015.10 1014.22 1013.74 1013.82 1013.95 1014.41 1014.49 1014.50 1014.28 1014.03 1014.14 1014.08
1007.54 1007.89 1009.13 1010.02 1010.69 1011.19 1011.67 1012.29 1012.50 1012.80 1013.17 1013.42 1013.66 1013.80 1014.14 1014.19 1014.11 1014.01 1014.31 1014.58 1014.85 1015.03 1015.06 1015.09 1015.16 1015.25 1015.26 1015.31 1015.36 1015.28 1015.11 1014.93 1014.55 1014.10 1014.06 1013.94 1014.62 1014.54 1014.37 1014.11 1013.97 1013.93 1013.96
1007.62 1007.90 1008.31 1009.45 1010.16 1010.88 1011.41 1012.22 1012.50 1012.75 1013.15 1013.41 1013.62 1013.96 1014.18 1014.28 1014.34 1014.33 1014.46 1014.79 1015.00 1015.06 1015.14 1015.31 1015.43 1015.47 1015.44 1015.48 1015.40 1015.37 1015.11 1014.84 1014.31 1014.26 1014.01 1014.68 1014.79 1014.63 1014.40 1014.16 1013.97 1013.88 1013.84
1007.77 1007.99 1008.15 1008.59 1009.34 1010.35 1011.16 1011.94 1012.49 1012.67 1013.18 1013.44 1013.65 1013.88 1014.00 1013.66 1013.95 1014.24 1014.68 1014.87 1015.02 1015.22 1015.36 1015.53 1015.56 1015.52 1015.44 1015.36 1015.32 1015.18 1014.96 1014.42 1014.45 1014.33 1014.31 1014.99 1015.01 1014.64 1014.32 1014.17 1014.02 1013.86 1013.77
1007.54 1007.84 1008.10 1008.47 1008.98 1009.97 1010.61 1011.56 1011.89 1012.24 1012.89 1013.03 1013.14 1013.44 1013.22 1013.42 1013.62 1013.68 1014.68 1014.88 1014.99 1015.29 1015.47 1015.56 1015.61 1015.44 1015.09 1014.91 1014.82 1014.85 1014.65 1014.85 1014.68 1014.57 1014.84 1015.30 1015.22 1014.70 1014.36 1014.19 1014.19 1014.15 1013.91
1006.99 1007.55 1008.24 1008.42 1009.00 1009.51 1010.15 1010.91 1011.21 1011.54 1012.22 1012.45 1012.57 1012.98 1013.06 1013.45 1013.96 1013.96 1014.14 1014.51 1014.79 1015.15 1014.89 1015.26 1015.07 1015.17 1015.45 1015.28 1015.10 1014.98 1014.87 1015.02 1014.84 1014.58 1015.45 1015.61 1015.30 1014.89 1014.67 1014.77 1014.50 1014.44 1014.36
1006.57 1007.18 1008.22 1008.62 1009.00 1009.32 1009.69 1010.33 1010.61 1011.10 1011.60 1012.20 1012.30 1012.67 1013.05 1013.29 1013.56 1013.55 1013.62 1014.15 1014.51 1014.74 1014.95 1015.19 1015.15 1015.27 1015.52 1015.30 1015.10 1015.18 1015.11 1015.18 1014.95 1014.90 1015.86 1015.94 1015.76 1015.59 1015.35 1015.15 1014.96 1014.96 1014.79
1006.17 1006.75 1007.51 1008.34 1009.09 1009.26 1009.40 1010.13 1010.58 1010.87 1010.96 1011.40 1011.87 1012.41 1012.64 1013.00 1013.45 1013.45 1013.99 1014.31 1014.55 1014.89 1015.17 1015.34 1015.46 1015.44 1015.54 1015.55 1015.24 1015.27 1015.31 1015.35 1015.19 1015.15 1015.54 1016.24 1016.13 1016.06 1015.87 1015.68 1015.61 1015.54 1015.30
1005.77 1006.37 1006.94 1007.72 1008.74 1009.45 1009.60 1009.86 1010.49 1010.37 1010.42 1011.08 1011.60 1012.07 1012.34 1012.56 1013.30 1014.06 1014.61 1014.66 1014.82 1015.23 1015.52 1015.70 1015.86 1015.85 1015.65 1015.60 1015.47 1015.34 1015.41 1015.44 1015.49 1015.44 1015.34 1016.26 1016.46 1016.42 1016.30 1016.15 1016.16 1016.01 1015.83
1005.22 1005.79 1006.33 1007.00 1007.87 1009.04 1009.55 1009.79 1009.97 1009.84 1010.15 1011.26 1011.57 1011.95 1012.13 1012.75 1013.77 1014.40 1014.82 1015.01 1015.12 1015.66 1015.70 1015.88 1016.02 1015.99 1015.91 1015.66 1015.59 1015.43 1015.57 1015.65 1015.63 1015.67 1015.61 1015.77 1016.42 1016.49 1016.59 1016.53 1016.54 1016.32 1016.12
1004.68 1005.03 1005.58 1006.44 1007.15 1008.37 1009.32 1009.58 1009.75 1009.75 1010.20 1011.27 1011.45 1011.99 1012.38 1013.01 1013.97 1014.60 1014.85 1015.08 1015.50 1015.80 1015.99 1016.19 1016.40 1016.30 1016.22 1016.08 1015.93 1015.72 1015.51 1015.72 1015.62 1015.77 1015.84 1015.86 1016.36 1016.27 1016.56 1016.53 1016.70 1016.59 1016.37
1004.40 1004.71 1005.20 1005.86 1006.64 1007.48 1009.09 1009.44 1009.74 1009.88 1010.60 1010.94 1011.34 1011.79 1012.66 1013.64 1014.33 1014.80 1015.07 1015.39 1015.76 1016.08 1016.37 1016.42 1016.65 1016.74 1016.65 1016.51 1016.20 1015.87 1015.72 1015.79 1015.68 1015.82 1015.88 1016.07 1016.39 1016.50 1016.53 1016.49 1016.53 1016.36 1016.32
1003.82 1004.46 1004.51 1005.57 1006.17 1006.80 1008.18 1009.10 1009.66 1010.00 1010.67 1010.89 1011.63 1012.64 1013.45 1014.13 1014.35 1014.36 1015.05 1015.47 1015.88 1016.36 1016.60 1016.75 1016.88 1016.92 1017.07 1016.86 1016.34 1015.75 1015.84 1015.89 1015.77 1015.91 1015.85 1015.87 1016.25 1016.50 1016.57 1016.56 1016.59 1016.32 1016.18
1003.27 1004.00 1004.35 1004.63 1005.55 1006.13 1006.89 1008.48 1009.43 1010.09 1010.90 1011.54 1012.25 1012.76 1013.60 1014.02 1014.30 1014.70 1015.18 1015.74 1016.12 1016.56 1016.94 1017.02 1016.94 1017.13 1017.23 1017.15 1016.37 1016.05 1015.61 1015.92 1015.86 1015.85 1016.07 1016.13 1016.19 1016.42 1016.53 1016.64 1016.64 1016.48 1016.21
1003.07 1003.51 1003.73 1004.18 1004.74 1005.52 1006.74 1008.02 1009.09 1010.17 1011.28 1012.02 1012.72 1013.36 1013.87 1014.21 1014.59 1014.96 1015.33 1015.95 1016.43 1016.80 1017.21 1017.38 1017.37 1017.26 1017.42 1017.67 1017.39 1016.64 1015.95 1015.73 1015.80 1016.01 1016.09 1016.29 1016.40 1016.55 1016.61 1016.74 1016.71 1016.52 1016.35
1002.47 1002.82 1003.12 1003.67 1004.21 1005.38 1006.89 1008.01 1009.15 1010.67 1011.62 1012.44 1013.01 1013.70 1014.10 1014.31 1014.83 1015.12 1015.63 1016.09 1016.61 1017.06 1017.42 1017.73 1017.86 1017.82 1017.73 1017.84 1017.96 1017.75 1017.02 1016.62 1016.68 1015.87 1016.11 1016.42 1016.45 1016.59 1016.64 1016.68 1016.61 1016.51 1016.31
1001.65 1002.26 1002.77 1003.17 1003.93 1005.24 1006.60 1007.37 1008.05 1008.85 1010.27 1011.51 1012.49 1013.40 1014.24 1014.56 1015.11 1015.33 1015.87 1016.35 1016.76 1017.24 1017.59 1017.96 1018.16 1018.24 1018.18 1018.14 1018.11 1018.13 1018.15 1018.14 1017.90 1016.99 1016.29 1016.47 1016.51 1016.67 1016.55 1016.44 1016.44 1016.45 1016.14
1000.87 1001.41 1002.36 1002.96 1003.67 1004.78 1006.19 1006.91 1007.74 1008.80 1009.84 1011.22 1012.33 1013.22 1014.29 1014.84 1015.20 1015.80 1016.05 1016.60 1017.02 1017.39 1017.79 1018.05 1018.23 1018.44 1018.71 1018.63 1018.62 1018.57 1018.40 1018.22 1018.26 1018.19 1017.24 1016.84 1016.94 1016.68 1016.49 1016.27 1016.28 1016.19 1016.01
1000.57 1000.95 1001.77 1002.62 1003.49 1004.39 1006.02 1006.66 1007.26 1008.02 1009.33 1011.03 1012.16 1013.07 1013.97 1014.75 1015.29 1015.76 1016.24 1016.80 1017.21 1017.60 1017.88 1018.13 1018.43 1018.60 1018.91 1019.02 1019.00 1018.91 1018.80 1018.68 1018.45 1018.50 1018.01 1017.51 1017.15 1016.69 1016.42 1016.20 1015.88 1015.84 1015.76
Thickness
5772 5766 5761 5758 5754 5751 5748 5748 5746 5744 5744 5744 5742 5740 5738 5735 5733 5731 5728 5727 5726 5725 5725 5725 5726 5726 5726 5726 5726 5725 5723 5722 5721 5723 5723 5723 5724 5724 5724 5725 5725 5726 5726
5773 5764 5758 5753 5750 5747 5744 5742 5742 5741 5739 5738 5737 5735 5733 5731 5729 5727 5726 5724 5723 5721 5721 5721 5720 5720 5721 5721 5720 5721 5719 5718 5718 5718 5719 5719 5719 5720 5721 5719 5719 5720 5719
5771 5762 5754 5751 5747 5744 5739 5737 5736 5735 5734 5732 5732 5731 5728 5726 5726 5723 5722 5721 5719 5718 5717 5716 5716 5716 5716 5717 5717 5717 5716 5714 5714 5714 5716 5720 5720 5717 5716 5716 5717 5716 5714
5767 5759 5755 5747 5743 5739 5735 5733 5731 5730 5730 5727 5727 5726 5725 5723 5722 5719 5717 5716 5715 5715 5713 5712 5712 5711 5711 5712 5713 5713 5713 5712 5712 5712 5718 5718 5717 5713 5712 5711 5711 5711 5711
5762 5757 5752 5744 5740 5735 5732 5729 5727 5725 5724 5723 5721 5720 5720 5718 5718 5717 5714 5712 5711 5710 5710 5709 5708 5708 5708 5707 5708 5709 5709 5709 5708 5711 5714 5712 5710 5709 5707 5708 5708 5707 5706
5762 5759 5744 5738 5734 5732 5730 5725 5722 5720 5718 5718 5716 5714 5714 5714 5713 5713 5713 5709 5708 5707 5706 5706 5706 5705 5706 5704 5704 5704 5703 5705 5705 5710 5710 5709 5707 5704 5702 5702 5701 5701 5703
5758 5757 5743 5735 5731 5727 5724 5723 5720 5716 5713 5712 5711 5710 5709 5710 5710 5711 5708 5707 5704 5703 5704 5704 5703 5703 5702 5701 5701 5700 5699 5700 5702 5706 5705 5704 5702 5700 5698 5700 5699 5697 5698
5753 5751 5740 5732 5728 5724 5720 5717 5716 5713 5710 5708 5706 5705 5705 5706 5708 5709 5705 5703 5701 5700 5700 5700 5700 5698 5699 5697 5697 5695 5696 5695 5701 5702 5701 5700 5696 5695 5694 5695 5697 5695 5694
5749 5746 5737 5729 5724 5721 5717 5713 5713 5711 5708 5706 5704 5703 5701 5701 5702 5703 5702 5700 5698 5697 5697 5697 5696 5694 5693 5693 5692 5692 5692 5691 5693 5694 5695 5695 5689 5689 5690 5692 5692 5691 5688
5743 5742 5739 5729 5723 5718 5715 5710 5709 5708 5705 5703 5701 5699 5698 5697 5697 5698 5698 5695 5694 5694 5693 5691 5690 5689 5689 5688 5688 5686 5686 5685 5687 5686 5689 5684 5683 5683 5684 5686 5687 5686 5685
5735 5735 5736 5733 5726 5719 5713 5709 5706 5705 5702 5700 5698 5697 5696 5698 5696 5695 5693 5692 5691 5689 5687 5686 5684 5684 5685 5685 5684 5684 5684 5683 5681 5680 5681 5676 5676 5678 5680 5680 5680 5680 5681
5727 5729 5731 5729 5726 5718 5714 5709 5706 5704 5699 5699 5698 5696 5697 5695 5695 5695 5689 5688 5687 5684 5682 5681 5680 5680 5683 5683 5683 5681 5680 5676 5676 5676 5674 5669 5669 5672 5674 5675 5673 5673 5674
5728 5728 5725 5725 5721 5717 5715 5710 5708 5706 5701 5700 5699 5695 5694 5691 5688 5688 5687 5684 5683 5680 5680 5677 5678 5677 5674 5675 5676 5675 5673 5670 5670 5672 5665 5663 5663 5665 5666 5664 5666 5664 5663
5725 5724 5719 5719 5717 5715 5712 5710 5708 5705 5702 5697 5697 5693 5690 5689 5687 5686 5686 5681 5679 5677 5674 5672 5673 5671 5668 5669 5670 5668 5666 5664 5664 5664 5657 5655 5654 5654 5654 5655 5655 5653 5652
5720 5720 5719 5714 5710 5710 5711 5706 5704 5702 5703 5699 5695 5691 5690 5687 5683 5682 5677 5674 5672 5669 5667 5665 5664 5664 5662 5661 5663 5661 5659 5656 5656 5656 5653 5646 5646 5644 5644 5644 5642 5640 5641
5717 5715 5716 5713 5707 5703 5704 5703 5699 5700 5701 5696 5692 5688 5687 5685 5678 5672 5667 5666 5664 5660 5658 5656 5654 5653 5655 5654 5654 5654 5652 5649 5647 5647 5647 5639 5637 5635 5634 5632 5630 5629 5629
5715 5714 5712 5712 5709 5701 5698 5698 5699 5699 5696 5689 5686 5683 5682 5679 5670 5665 5661 5658 5656 5650 5650 5648 5646 5646 5646 5647 5646 5646 5643 5641 5639 5638 5638 5635 5629 5627 5624 5622 5618 5618 5618
5713 5712 5713 5711 5708 5700 5694 5694 5694 5694 5691 5682 5681 5677 5674 5670 5663 5657 5656 5653 5647 5644 5641 5639 5637 5637 5637 5637 5637 5637 5637 5633 5633 5630 5628 5627 5620 5619 5615 5613 5609 5608 5608
5709 5708 5706 5706 5703 5701 5689 5689 5687 5687 5681 5678 5675 5673 5667 5659 5653 5650 5647 5643 5638 5635 5632 5632 5629 5627 5627 5627 5628 5629 5629 5626 5626 5622 5620 5617 5612 5608 5606 5604 5600 5600 5599
5708 5704 5706 5701 5700 5698 5690 5684 5680 5678 5674 5673 5667 5660 5654 5649 5647 5645 5639 5635 5630 5626 5624 5623 5621 5620 5617 5617 5620 5623 5620 5618 5618 5614 5612 5610 5604 5599 5595 5592 5590 5589 5589
5706 5701 5700 5701 5697 5695 5691 5679 5672 5668 5665 5661 5656 5653 5646 5643 5640 5635 5630 5626 5621 5618 5615 5614 5615 5612 5609 5607 5612 5613 5614 5610 5608 5606 5601 5597 5594 5588 5584 5580 5578 5577 5577
5696 5696 5698 5696 5696 5693 5686 5677 5669 5662 5655 5653 5647 5643 5638 5635 5631 5627 5622 5617 5612 5609 5606 5604 5604 5604 5600 5596 5595 5600 5603 5604 5599 5595 5591 5585 5581 5576 5572 5567 5564 5562 5562
5689 5691 5692 5693 5691 5687 5678 5669 5661 5650 5646 5640 5637 5633 5630 5627 5622 5618 5613 5609 5604 5599 5596 5593 5591 5591 5591 5587 5583 5583 5588 5588 5580 5586 5579 5572 5568 5562 5557 5554 5550 5546 5546
5685 5687 5688 5689 5684 5679 5674 5667 5663 5658 5648 5642 5635 5627 5621 5618 5612 5609 5604 5599 5595 5591 5587 5583 5581 5578 5577 5575 5574 5569 5565 5562 5561 5565 5569 5562 5557 5550 5546 5542 5536 5531 5530
5682 5681 5681 5680 5678 5674 5668 5663 5658 5650 5647 5638 5629 5622 5613 5608 5604 5598 5595 5589 5586 5582 5578 5574 5572 5567 5562 5560 5557 5555 5554 5552 5547 5542 5546 5548 5541 5539 5537 5534 5530 5525 5520
5673 5674 5674 5672 5670 5669 5659 5657 5653 5650 5644 5630 5621 5616 5608 5602 5596 5591 5586 5580 5576 5572 5569 5565 5560 5556 5551 5547 5544 5542 5539 5536 5534 5528 5528 5528 5527 5527 5523 5519 5516 5511 5505